Location: Mountain View
(37.3861°N, 122.0839°W)
Time: 00:44:39
(UTC-08:00)

Hubble Space Telescope - Visible Passes

Search period start: 20 January 2026 00:00
Search period end: 30 January 2026 00:00
Orbit: 479 x 481 km, 28.5° (Epoch: 19 January)

Date Brightness Start Highest point End Pass type
(mag) Time Alt. Az. Time Alt. Az. Time Alt. Az.
22 Jan 3.0 19:16:47 10° SSW 19:17:58 13° S 19:17:58 13° S visible
23 Jan 2.8 18:46:58 10° SSW 18:48:52 13° SSE 18:49:55 12° SSE visible
24 Jan 2.9 18:17:08 10° SSW 18:19:03 13° SSE 18:20:57 10° SE visible
24 Jan 3.5 19:55:25 10° SW 19:55:59 13° SW 19:55:59 13° SW visible
25 Jan 2.6 19:25:35 10° SW 19:27:53 20° S 19:27:53 20° S visible
26 Jan 2.4 18:55:44 10° SW 18:58:37 21° S 18:59:47 18° SSE visible
27 Jan 2.5 18:25:53 10° SW 18:28:45 21° S 18:31:39 10° SE visible
27 Jan 3.7 20:05:33 10° SW 20:05:50 11° SW 20:05:50 11° SW visible
28 Jan 2.6 17:56:01 10° SW 17:58:53 21° S 18:01:46 10° SE visible
28 Jan 2.9 19:35:41 10° SW 19:37:46 17° SSW 19:37:46 17° SSW visible
29 Jan 2.8 19:05:48 10° SW 19:08:17 17° S 19:09:45 14° SSE visible
